Theta_e
321 320 321 320 319 318 317 317 318 320 322 322 322 322 321 321 322 323 324 321 319 318 317 316 316 318 319 320 321 321 322 324 328 335 336 335 328 324 322 320 318 316 315 313
321 322 320 319 319 319 320 321 321 322 323 320 320 320 321 322 323 320 319 316 315 314 313 313 313 314 314 315 317 320 320 321 322 327 334 335 332 325 322 320 318 316 315 314
322 323 320 318 320 320 321 321 322 321 321 320 321 322 323 321 320 317 314 312 311 310 310 311 311 311 311 312 313 314 317 319 319 321 328 334 331 326 323 320 319 318 315 315
321 320 319 320 320 320 320 320 320 320 320 321 320 321 321 321 319 316 314 313 311 309 309 310 310 310 310 310 311 311 312 312 314 317 319 326 332 328 325 322 321 319 316 315
319 320 320 319 319 319 319 320 320 321 321 321 322 323 322 321 319 317 316 312 308 308 309 309 309 309 309 309 310 310 310 312 311 308 313 318 319 330 328 324 321 319 317 315
319 319 319 318 319 320 319 321 319 318 319 323 322 323 322 321 318 312 310 308 307 307 308 308 308 308 308 309 310 310 311 312 312 312 312 312 317 319 328 325 323 320 318 316
321 320 319 318 317 321 320 318 319 322 326 327 320 319 321 316 311 308 307 307 306 305 307 307 307 307 308 308 309 310 310 311 312 314 315 314 314 316 320 327 325 321 318 316
321 321 319 316 316 317 315 317 319 320 320 321 318 318 320 312 308 307 306 306 306 305 307 307 307 307 307 307 308 309 310 310 310 312 315 315 313 314 316 321 324 323 319 316
316 319 316 313 315 314 316 315 311 315 316 316 316 317 315 309 307 306 306 306 305 305 307 307 306 306 307 306 307 308 309 308 307 309 312 315 314 312 313 316 322 322 320 317
311 308 310 313 312 312 313 312 310 311 311 312 312 311 311 307 306 306 306 305 305 305 306 306 305 306 305 306 307 308 308 307 306 306 310 312 313 312 311 313 316 320 320 319
308 307 310 309 310 309 309 308 309 309 308 309 312 311 309 306 306 306 306 305 304 305 306 306 306 305 305 304 306 306 305 305 306 306 308 310 311 312 310 311 312 317 318 317
306 305 305 307 308 308 307 306 307 311 310 309 307 308 307 306 306 306 306 304 305 305 305 305 306 305 304 306 304 304 305 305 306 306 307 307 310 311 311 309 310 312 315 314
305 305 305 309 310 309 309 309 309 307 308 308 308 307 307 306 305 306 305 305 305 305 305 305 305 305 305 304 303 304 304 306 307 307 307 308 309 310 311 309 309 309 311 314
304 304 304 307 307 307 307 307 306 306 306 306 306 305 305 305 305 305 304 304 305 305 304 304 305 305 304 304 304 305 305 305 306 306 307 309 309 308 308 309 309 308 310 313
306 306 306 306 306 306 305 305 305 305 305 304 305 305 305 304 303 304 304 305 305 304 304 305 305 305 304 304 304 304 305 305 305 305 305 307 308 308 307 308 309 308 308 310
305 305 306 306 306 306 305 305 305 305 305 305 304 304 304 304 304 304 305 304 304 304 305 305 304 304 304 304 304 304 303 304 304 304 304 306 308 308 307 306 307 308 307 309
305 306 307 306 305 305 305 306 305 305 304 304 303 304 304 305 305 305 304 304 303 304 304 303 303 303 303 302 302 303 303 303 304 303 304 304 307 308 307 306 305 307 307 308
305 305 306 306 305 306 307 305 305 304 304 304 304 305 306 305 304 304 304 304 304 303 303 302 302 302 302 302 302 302 302 303 303 303 303 304 307 307 306 305 304 304 306 307
304 304 305 305 306 305 305 305 304 304 303 304 304 305 304 304 304 303 303 304 304 303 303 302 301 301 301 301 302 302 302 302 303 302 303 306 306 306 304 305 303 303 306 306
305 304 305 304 304 305 305 305 304 303 303 304 303 303 304 304 304 303 303 303 303 303 303 301 301 301 301 301 302 301 302 301 302 302 304 305 303 303 303 303 302 301 304 306
304 304 305 306 305 306 305 303 303 302 302 303 302 303 304 304 304 303 303 303 303 302 301 301 300 300 300 301 301 301 301 302 301 301 303 303 303 302 302 302 300 300 303 306
305 305 304 304 304 304 304 303 302 302 302 302 304 304 303 303 302 302 302 302 301 301 300 300 301 300 300 300 301 301 301 300 300 300 301 301 301 301 302 300 300 300 302 305
304 303 305 303 304 303 303 302 302 302 303 303 303 302 302 302 301 301 301 301 301 300 300 300 300 300 299 300 300 300 300 300 300 300 300 300 301 301 301 299 301 300 301 304
303 303 302 302 302 302 302 302 302 302 303 302 301 301 301 301 300 300 300 300 299 299 300 300 299 298 299 300 300 300 299 299 299 299 299 299 301 301 300 303 305 302 303 304
302 302 302 301 302 302 302 302 303 302 301 301 301 300 299 299 299 298 298 297 297 297 297 297 297 298 297 298 298 298 298 298 298 298 298 300 300 299 300 303 304 304 304 305
301 301 302 302 302 302 302 302 301 300 300 299 299 298 297 296 296 296 296 296 295 295 296 296 296 296 297 296 296 295 295 296 298 298 299 300 299 298 299 302 303 304 303 304
Wind_Speed
4 3 6 9 7 8 8 11 13 13 13 12 9 16 20 28 23 19 15 27 33 31 32 36 34 29 21 17 13 13 7 15 22 31 33 36 35 35 37 38 37 38 38 37
5 7 5 6 5 5 8 13 14 12 10 13 11 18 22 23 8 32 31 33 33 35 35 36 37 35 36 32 25 16 12 10 11 20 36 40 41 40 39 39 38 39 42 40
5 9 3 4 6 11 11 12 10 13 15 14 10 8 2 16 31 33 32 30 33 34 33 33 34 36 36 36 33 29 23 20 19 16 20 36 36 36 38 38 43 44 43 44
8 5 2 7 10 10 9 9 11 12 11 4 10 6 9 10 17 18 21 24 27 30 30 30 33 36 35 33 32 33 31 30 26 25 22 21 40 44 44 45 46 45 46 47
5 8 6 7 8 10 6 9 13 15 13 11 10 4 6 17 14 12 16 24 26 24 27 32 34 32 31 31 31 33 32 29 33 32 28 32 24 45 46 43 42 44 47 49
12 15 4 2 9 8 9 11 17 17 8 5 9 10 4 4 13 10 16 22 26 25 23 26 28 30 31 30 30 31 26 28 29 31 33 30 33 29 44 44 41 44 45 47
11 1 6 8 9 2 9 11 4 2 2 5 14 6 4 16 15 18 16 24 29 30 27 28 31 33 33 32 33 31 28 30 29 30 31 33 30 31 34 49 46 45 45 47
6 2 4 5 3 6 12 5 4 5 4 8 19 4 6 17 24 21 23 23 22 24 22 25 25 29 32 35 35 35 32 32 30 33 32 32 31 30 34 38 48 47 47 47
6 2 6 8 4 4 8 4 4 5 9 10 6 6 19 15 17 22 28 26 26 27 23 26 27 29 29 34 33 34 32 31 33 34 35 31 33 32 30 34 43 47 43 44
4 7 8 6 3 8 5 3 2 3 5 5 4 7 4 23 21 24 25 25 31 33 34 36 42 38 38 39 34 28 29 34 37 35 35 36 34 36 33 31 35 45 46 40
5 3 2 12 3 8 5 7 7 5 6 4 5 6 7 16 18 23 30 29 28 20 24 29 31 30 34 37 34 28 32 35 34 33 32 32 33 36 34 30 28 37 41 43
6 4 5 8 9 7 4 7 8 1 5 4 3 17 19 13 27 27 28 27 21 24 25 27 30 34 33 28 34 38 37 36 35 29 33 41 33 32 32 30 29 28 34 38
7 2 5 4 4 4 2 3 3 8 4 15 11 12 15 29 29 32 31 20 23 24 28 33 34 33 25 31 37 38 37 34 33 34 34 33 28 30 28 31 27 29 31 36
2 4 6 5 10 14 15 13 14 14 10 16 17 26 21 22 25 28 22 24 24 26 31 36 33 30 30 34 34 36 35 34 37 36 37 31 29 30 33 29 27 27 30 32
3 6 9 11 15 16 18 19 18 17 18 18 24 25 24 18 19 24 26 24 24 31 37 35 29 33 37 35 31 33 36 38 37 38 36 36 35 33 31 31 26 28 31 27
2 4 9 12 16 16 18 18 19 19 20 21 20 22 17 22 28 26 23 24 26 31 30 33 34 37 38 36 33 35 39 38 39 37 40 39 36 29 32 35 25 23 29 32
5 3 5 4 7 17 14 4 6 13 16 13 16 18 18 14 20 25 28 29 31 27 32 31 35 37 36 39 39 38 39 41 36 39 41 42 37 31 28 33 35 25 24 29
7 6 3 7 12 4 4 14 14 17 18 16 18 16 14 19 26 31 35 29 28 27 30 36 37 38 42 44 39 40 38 37 35 37 42 39 33 28 35 35 35 29 27 27
15 6 4 3 5 17 19 5 14 18 16 11 9 12 24 30 29 30 31 26 31 36 36 34 38 42 42 43 41 38 41 36 36 38 40 33 37 43 40 32 33 33 31 24
8 10 7 5 5 6 3 18 18 10 15 9 24 27 27 28 14 15 37 39 39 38 35 36 38 41 41 41 40 40 37 38 36 37 35 39 46 46 43 36 32 34 33 28
4 5 10 10 10 10 10 11 23 8 13 34 36 27 28 16 21 37 40 43 39 37 38 42 43 41 44 40 39 38 40 35 35 37 39 40 42 49 43 37 32 29 31 29
3 3 3 5 8 12 2 21 13 23 36 36 26 26 29 35 36 37 37 37 39 44 50 49 44 43 47 40 38 38 38 39 40 37 37 41 46 46 42 36 31 28 25 30
4 7 3 5 6 21 33 30 33 36 24 28 31 36 34 35 37 38 39 42 46 47 49 46 43 43 50 39 36 36 41 40 40 37 38 41 45 47 40 36 31 25 30 34
7 10 7 10 8 17 29 38 29 32 30 32 36 36 36 38 43 48 47 47 48 48 47 43 43 44 43 38 35 36 38 37 40 42 40 42 44 43 33 30 26 28 33 36
13 14 9 13 21 31 24 26 24 31 35 35 35 36 42 45 47 45 46 46 47 47 46 43 42 41 46 40 39 37 37 38 41 39 42 41 41 35 26 19 21 27 34 31
18 10 7 10 19 17 22 26 28 31 33 40 42 43 40 40 46 46 47 44 48 48 47 44 45 45 43 45 38 42 41 37 34 38 39 38 35 27 24 16 16 17 28 29
Wind_Direction
147 299 267 9 14 336 311 293 290 294 301 305 320 309 301 297 290 284 310 53 57 51 37 32 22 30 26 31 33 20 354 265 262 235 229 226 237 235 235 241 241 240 240 238
247 236 56 346 315 298 290 285 286 286 340 343 305 293 286 279 52 74 66 56 43 36 30 24 18 14 15 7 4 356 332 307 313 291 246 238 232 236 239 240 241 239 244 242
290 311 64 335 316 300 297 297 314 319 323 292 301 271 81 62 80 73 63 58 47 34 25 20 18 13 9 360 354 352 340 317 303 292 294 241 231 233 234 233 241 241 239 245
275 82 356 315 306 322 312 355 336 313 315 295 6 289 300 112 88 77 75 62 49 31 23 17 10 4 358 356 350 346 347 344 331 304 296 278 246 232 233 238 243 242 237 240
280 344 5 309 320 344 279 330 297 279 270 285 262 244 277 132 103 88 57 46 30 28 24 13 3 356 352 347 341 332 332 331 327 333 314 285 301 253 241 237 239 239 239 236
258 272 279 2 316 267 294 297 297 272 248 257 292 195 299 94 91 65 40 26 20 16 17 11 359 351 347 344 336 334 337 323 323 322 319 313 284 285 246 237 238 236 237 234
309 43 90 27 332 316 356 340 305 304 151 220 45 353 110 98 75 42 23 19 12 3 2 4 356 351 346 343 338 333 331 326 325 320 314 314 298 287 275 250 238 240 237 234
338 217 166 67 41 323 297 262 287 301 323 321 331 233 131 104 48 38 21 2 359 358 352 358 354 349 345 339 334 331 329 326 323 325 318 311 306 287 283 265 245 244 240 240
341 268 358 10 32 344 9 347 346 295 276 270 227 242 134 49 29 19 359 354 352 349 348 348 344 344 339 333 328 325 324 326 328 317 327 318 310 299 289 273 254 237 243 244
40 296 295 121 317 255 228 72 11 304 279 273 290 314 273 5 2 352 346 342 344 347 348 346 340 334 333 331 326 326 325 321 319 321 320 316 322 313 290 279 270 245 236 248
335 235 295 333 276 351 322 301 291 260 243 267 320 256 49 2 354 339 330 333 329 335 341 335 326 324 328 323 320 326 327 322 316 313 314 317 304 316 309 291 281 255 240 239
46 314 289 273 312 27 320 295 277 226 280 330 273 273 311 336 333 316 309 317 326 338 339 329 323 320 321 324 332 331 328 320 316 306 306 311 310 304 307 302 279 268 250 245
10 261 304 148 118 182 37 13 297 248 260 261 264 267 327 313 308 305 305 323 339 343 337 326 317 319 316 328 332 322 319 318 317 317 311 307 308 314 311 305 292 280 264 244
197 261 253 267 293 306 298 300 293 287 280 287 267 288 299 300 294 296 330 332 338 338 331 322 316 320 327 328 327 320 317 314 315 310 311 302 308 308 307 296 287 291 267 249
233 269 276 284 300 302 293 289 282 274 276 271 288 279 283 293 316 320 321 336 338 332 320 315 321 317 320 320 319 321 318 314 315 314 309 305 303 307 306 305 285 274 281 260
216 275 311 289 280 276 289 286 284 276 274 273 288 294 305 310 309 314 339 332 326 319 320 321 323 321 320 318 318 318 313 309 311 308 306 305 305 301 319 309 289 262 280 256
287 280 321 261 319 311 287 282 343 312 303 313 311 313 322 339 348 335 327 323 315 319 312 316 319 314 313 314 315 313 310 306 304 304 302 305 303 303 310 310 309 278 253 266
254 278 287 289 308 253 248 325 329 324 316 311 307 323 346 325 317 315 310 306 306 313 315 317 312 312 312 312 311 312 310 306 302 304 301 304 299 301 309 303 296 294 245 268
218 241 280 273 281 284 276 278 334 308 307 308 310 321 315 312 314 305 307 307 309 310 309 305 309 310 309 307 309 310 307 306 304 305 301 298 298 300 305 297 295 288 254 238
209 207 224 266 281 271 279 324 324 339 296 342 331 317 316 320 307 300 309 306 305 303 302 307 308 307 307 306 307 308 306 306 304 305 298 300 303 305 301 294 288 275 256 223
227 236 236 249 255 263 271 -0 336 304 296 316 310 304 312 301 294 301 302 302 302 299 307 308 307 302 305 305 306 302 305 304 304 305 300 302 297 311 304 297 286 271 248 216
222 245 240 254 262 268 294 328 320 300 308 306 319 322 310 301 300 300 300 299 299 299 303 302 302 300 304 302 302 300 301 305 306 301 301 300 302 312 304 297 284 260 248 222
246 214 214 219 242 287 305 301 304 303 314 321 318 313 306 302 300 301 301 300 299 297 299 297 295 298 301 299 298 298 303 307 306 301 304 301 306 313 310 302 279 253 238 214
273 280 275 300 258 289 299 295 298 313 315 317 314 305 308 305 305 302 301 301 299 299 299 297 300 300 296 299 301 300 303 306 305 302 304 304 308 311 307 299 265 234 222 208
264 291 260 266 281 284 291 311 326 321 318 312 307 305 306 305 304 305 305 306 305 303 301 300 299 295 296 297 300 300 306 303 305 302 302 304 307 310 300 292 241 220 210 196
249 246 246 272 305 314 320 324 325 317 314 311 312 314 314 312 310 310 307 305 303 302 301 299 297 295 290 298 293 303 301 303 300 298 300 299 302 296 286 273 235 209 202 189